EW9037 Weather Reports


Display with metric or nautical units.
time (UTC)temp
F
wind
direction
speed
MPH
gust
MPH
rain 1hr
in
rain 24hr
in
rain mn
in
humidity
%
barometer
mb
20210921151509 69 208 0.0 2.0 0.00 0.05 0.00 94 1018.3
20210921150007 69 219 0.0 3.0 0.00 0.05 0.00 94 1018.3
20210921144504 69 192 1.0 4.0 0.00 0.05 0.00 94 1018.3
20210921143004 68 128 0.0 2.0 0.00 0.05 0.00 94 1018.1
20210921141506 68 150 1.0 3.0 0.00 0.05 0.00 94 1018.0
20210921140001 69 222 0.0 2.0 0.00 0.05 0.00 95 1018.0
20210921134630 69 188 0.0 3.0 0.00 0.17 0.00 95 1017.9
20210921133238 69 113 0.0 2.0 0.00 0.17 0.00 95 1017.9
20210921131616 69 241 0.0 3.0 0.00 0.17 0.00 95 1017.7
20210921130141 68 149 0.0 2.0 0.00 0.17 0.00 95 1017.4
20210921124719 68 122 0.0 1.0 0.00 0.52 0.00 95 1017.2
20210921123127 68 125 0.0 1.0 0.00 0.52 0.00 94 1017.2
20210921121555 67 125 0.0 0.0 0.00 0.52 0.00 94 1017.2
20210921120148 67 105 0.0 1.0 0.00 0.52 0.00 94 1017.0
20210921114601 67 105 0.0 1.0 0.00 0.91 0.00 94 1016.8
20210921113121 67 188 1.0 3.0 0.00 0.91 0.00 94 1016.7
20210921111635 67 121 0.0 1.0 0.00 0.91 0.00 94 1016.8
20210921110146 67 144 0.0 1.0 0.00 0.91 0.00 94 1016.8
20210921104722 67 142 0.0 0.0 0.00 0.92 0.00 95 1016.9
20210921103109 67 142 0.0 2.0 0.00 0.92 0.00 95 1016.7
20210921101609 67 152 0.0 2.0 0.00 0.92 0.00 94 1016.5
20210921100119 67 150 0.0 2.0 0.00 0.92 0.00 94 1016.4
20210921094610 67 164 0.0 1.0 0.00 0.93 0.00 94 1016.2
20210921093100 67 160 0.0 1.0 0.00 0.93 0.00 94 1016.1
20210921091613 66 116 0.0 2.0 0.00 0.93 0.00 94 1016.0
20210921090042 66 160 0.0 1.0 0.00 0.93 0.00 93 1016.1
20210921084622 66 172 0.0 1.0 0.00 0.93 0.00 93 1016.0
20210921083209 66 187 0.0 1.0 0.00 0.93 0.00 93 1016.2
20210921081619 66 125 1.0 2.0 0.00 0.93 0.00 93 1016.0
20210921080117 66 107 0.0 3.0 0.00 0.93 0.00 93 1016.0
20210921074542 66 113 1.0 3.0 0.00 1.36 0.00 93 1015.9
20210921073037 66 101 0.0 2.0 0.00 1.36 0.00 93 1016.3
20210921071558 66 148 0.0 1.0 0.00 1.36 0.00 94 1016.3
20210921070118 66 153 0.0 0.0 0.00 1.36 0.00 94 1016.6
20210921064619 67 154 0.0 1.0 0.00 1.55 0.00 94 1016.7
20210921063147 67 153 0.0 1.0 0.00 1.55 0.00 94 1016.7
20210921061557 66 153 0.0 0.0 0.00 1.55 0.00 94 1016.8
20210921060047 66 153 0.0 0.0 0.00 1.55 0.00 95 1016.7
20210921054544 66 153 0.0 0.0 0.00 1.59 0.00 95 1016.6
20210921053051 67 153 0.0 0.0 0.00 1.59 0.00 95 1016.4
20210921051559 67 160 0.0 2.0 0.00 1.59 0.00 95 1016.3
20210921050055 67 165 0.0 1.0 0.00 1.59 0.00 95 1016.3
20210921044531 68 167 0.0 3.0 0.00 1.79 0.00 94 1016.2
20210921043027 68 150 0.0 5.0 0.00 1.79 0.00 94 1016.0
20210921041524 69 148 2.0 5.0 0.00 1.79 0.00 94 1015.8
20210921040026 69 173 3.0 8.0 0.00 1.79 0.00 95 1015.8
20210921034525 69 119 1.0 4.0 0.00 1.79 1.79 94 1015.8
20210921033016 69 116 0.0 3.0 0.00 1.79 1.79 93 1015.9
20210921031528 69 115 0.0 2.0 0.00 1.79 1.79 93 1016.0
20210921030019 69 105 0.0 1.0 0.00 1.79 1.79 93 1016.2
20210921024526 69 125 0.0 2.0 0.00 1.79 1.79 94 1016.2
20210921023040 69 142 1.0 4.0 0.00 1.79 1.79 94 1016.4
20210921021537 69 225 1.0 3.0 0.00 1.79 1.79 94 1016.4
20210921020047 69 117 2.0 4.0 0.00 1.79 1.79 94 1016.4
20210921014520 69 117 1.0 3.0 0.00 1.80 1.79 94 1016.4
20210921013011 69 107 1.0 4.0 0.00 1.80 1.79 95 1016.4
20210921011518 70 124 0.0 6.0 0.00 1.80 1.79 95 1016.4
20210921010020 70 159 0.0 4.0 0.00 1.80 1.79 95 1016.3
20210921004525 70 106 3.0 6.0 0.00 1.81 1.79 95 1016.2
20210921003020 71 73 1.0 4.0 0.00 1.81 1.79 94 1016.2
20210921001526 71 109 1.0 3.0 0.00 1.81 1.79 93 1016.2
20210921000008 72 143 1.0 6.0 0.00 1.81 1.79 93 1016.2
20210920234531 72 149 1.0 7.0 0.00 1.83 1.79 92 1016.4
20210920233021 72 160 2.0 5.0 0.00 1.83 1.79 93 1016.4
20210920231506 72 145 3.0 5.0 0.00 1.83 1.79 92 1016.3
20210920230005 73 146 2.0 6.0 0.00 1.83 1.79 91 1016.3
20210920224519 74 127 2.0 5.0 0.00 1.84 1.79 90 1016.4
20210920223015 74 132 2.0 11.0 0.00 1.84 1.79 91 1016.3
20210920221503 73 179 3.0 8.0 0.00 1.84 1.79 92 1016.4
20210920220003 74 115 4.0 10.0 0.00 1.84 1.79 92 1016.5
20210920214502 74 195 4.0 12.0 0.00 1.90 1.79 92 1016.5
20210920213222 73 119 4.0 7.0 0.00 1.90 1.79 94 1016.5
20210920211858 73 105 4.0 10.0 0.00 1.90 1.79 92 1016.5
20210920210202 72 79 2.0 8.0 0.00 1.90 1.79 91 1016.5
20210920204722 72 219 5.0 11.0 0.00 1.98 1.79 92 1016.7
20210920203149 72 170 5.0 13.0 0.00 1.98 1.79 91 1016.7
20210920201655 72 239 4.0 10.0 0.00 1.98 1.79 90 1016.7
20210920200151 72 160 3.0 8.0 0.00 1.98 1.79 89 1016.7
20210920194627 72 163 4.0 10.0 0.00 1.99 1.79 89 1016.9
20210920193120 72 139 3.0 10.0 0.00 1.99 1.79 89 1016.8
20210920191626 72 162 4.0 8.0 0.00 1.99 1.79 89 1016.7
20210920190147 73 188 2.0 6.0 0.00 1.99 1.79 88 1016.9
20210920184711 72 124 2.0 6.0 0.00 1.99 1.79 88 1016.8
20210920183051 72 173 2.0 7.0 0.01 1.99 1.79 88 1016.9
20210920181615 72 136 2.0 6.0 0.01 1.99 1.79 88 1017.0
20210920180115 72 143 2.0 10.0 0.04 1.99 1.79 88 1017.1
20210920174555 72 131 3.0 8.0 0.05 1.99 1.79 88 1017.2
20210920173058 71 157 4.0 9.0 0.04 1.98 1.78 88 1017.2
20210920171609 72 188 4.0 11.0 0.04 1.98 1.78 88 1017.2
20210920170127 72 153 3.0 6.0 0.01 1.95 1.75 88 1017.3
20210920164554 72 203 4.0 9.0 0.00 1.94 1.74 88 1017.3
20210920163051 72 147 4.0 9.0 0.00 1.94 1.74 89 1017.3
20210920161603 71 150 4.0 10.0 0.00 1.94 1.74 89 1017.4
20210920160058 71 160 4.0 10.0 0.00 1.94 1.74 89 1017.4
20210920154531 71 145 3.0 8.0 0.00 1.94 1.74 89 1017.5
20210920153026 71 198 3.0 7.0 0.00 1.94 1.74 89 1017.5